Regional Weather Roundup
Issued by NWS

Home | Current Version | Previous Version | Text Only | Print | Product List | Glossary On
Versions: 1 2 3 4 5 6 7 8 9 10 11 12 13 14 15 16 17 18 19 20 21 22 23 24 25 26 27 28 29 30 31 32 33 34 35 36 37 38 39 40 41 42 43 44 45 46 47 48 49 50
131
ASUS44 KJAN 220703
RWRMS

MISSISSIPPI HOURLY WEATHER ROUNDUP
NATIONAL WEATHER SERVICE JACKSON MS
200 AM CDT WED OCT 22 2014

NOTE: "FAIR: INDICATES FEW OR NO CLOUDS BELOW 12,000 FEET WITH NO
SIGNIFICANT WEATHER AND/OR OBSTRUCTIONS TO VISIBILITY.

MSZ001>002-007>008-010>013-018>021-025>028-034>036-220800-
NORTHWEST MISSISSIPPI

CITY           SKY/WX    TMP DP  RH WIND       PRES   REMARKS
CLARKSDALE     FAIR      54  50  87 CALM      30.11S
CLEVELAND      FOG       54  52  92 CALM      30.09R VSB 3/4
GREENWOOD      CLEAR     50  49  96 NE3       30.08S FOG
GREENVILLE     CLEAR     53  50  89 CALM      30.09R
GRENADA          N/A    N/A N/A N/A MISG        N/A
OLIVE BRANCH   CLEAR     52  50  93 NE5       30.13R
OXFORD         FAIR      48  46  93 NE6       30.13R
TUNICA         SUNNY     50  46  87 NE3       30.13R
$$

MSZ003>006-009-014>017-022>024-029>033-037>039-220800-
NORTHEAST MISSISSIPPI

CITY           SKY/WX    TMP DP  RH WIND       PRES   REMARKS
COLUMBUS AFB   CLEAR     50  49  99 N2        30.08S
CORINTH        FAIR      52  46  82 CALM      30.12R
GOLDN TRIANGLE CLEAR     52  45  76 N7        30.08S
STARKVILLE     FAIR      50  50 100 N3        30.08S
TUPELO         CLEAR     52  47  83 CALM      30.10R
$$

MSZ040-058-220800-
CENTRAL MISSISSIPPI

CITY           SKY/WX    TMP DP  RH WIND       PRES   REMARKS
JACKSON INTL   CLEAR     53  51  93 CALM      30.07F
JACKSON HAWKNS CLEAR     58  54  86 CALM      30.07F
MERIDIAN KEY   CLEAR     50  48  93 N5        30.07S
MERIDIAN NAS   CLEAR     51  50  96 CALM      30.07S
RAYMOND        HAZE      52  46  82 MISG      30.07F VSB<1/4
VICKSBURG      CLEAR     56  54  93 CALM      30.07F
$$

MSZ059>079-220800-
SOUTH MISSISSIPPI

CITY           SKY/WX    TMP DP  RH WIND       PRES   REMARKS
BROOKHAVEN     FAIR      57  55  94 N3        30.07S
HATTIESBURG    CLEAR     55  54  96 CALM      30.05R
MCCOMB         CLEAR     58  54  86 CALM      30.05F
NATCHEZ        CLEAR     55  54  94 CALM      30.06S
PINE BELT      CLEAR     57  54  88 N5        30.06R
$$

MSZ080>082-220800-
COASTAL MISSISSIPPI

CITY           SKY/WX    TMP DP  RH WIND       PRES   REMARKS
BILOXI         CLEAR     61  56  84 NE5       30.01F
PASCAGOULA     CLEAR     50  49  96 N5        30.02S
GULFPORT       CLEAR     58  55  90 CALM      30.01F
$$



USA.gov is the U.S. government's official web portal to all federal, state and local government web resources and services.